Location: Prairie Dale
(45.6972°N, 104.5033°W)
Time: 14:24:09
(UTC+00:00)

Envisat - Visible Passes

Search period start: 22 January 2022 00:00
Search period end: 01 February 2022 00:00
Orbit: 764 x 766 km, 98.2° (Epoch: 21 January)

Date Brightness Start Highest point End Pass type
(mag) Time Alt. Az. Time Alt. Az. Time Alt. Az.
22 Jan 3.1 11:50:23 10° NNE 11:55:29 73° ESE 12:00:33 10° S visible
22 Jan 4.4 13:30:41 10° NNW 13:33:55 17° WNW 13:37:10 10° W visible
23 Jan 4.5 11:13:51 10° NNE 11:18:28 34° E 11:23:03 10° SSE visible
23 Jan 3.6 12:52:55 10° N 12:57:26 33° WNW 13:01:56 10° SW visible
24 Jan 5.6 10:38:06 10° NE 10:41:14 16° E 10:44:22 10° SE visible
24 Jan 2.9 12:15:41 10° N 12:20:45 68° WNW 12:25:47 10° SSW visible
24 Jan 4.8 13:57:42 10° NW 13:58:49 11° NW 13:59:56 10° WNW visible
25 Jan 3.5 11:38:51 10° NNE 11:43:52 57° E 11:48:51 10° S visible
25 Jan 4.2 13:18:44 10° NNW 13:22:28 21° WNW 13:26:12 10° WSW visible
26 Jan 6.3 00:38:46 10° WSW 00:40:21 11° W 00:41:56 10° WNW visible
26 Jan 4.9 11:02:28 10° NE 11:06:47 27° E 11:11:04 10° SSE visible
26 Jan 3.3 12:41:10 10° N 12:45:55 41° WNW 12:50:39 10° SW visible
27 Jan 5.9 10:27:17 10° ENE 10:29:30 13° E 10:31:42 10° ESE visible
27 Jan 2.8 12:04:04 10° NNE 12:09:11 85° WNW 12:14:16 10° SSW visible
27 Jan 4.6 13:45:04 10° NNW 13:47:24 13° WNW 13:49:45 10° W visible
28 Jan 3.9 11:27:20 10° NNE 11:32:14 45° E 11:37:05 10° S visible
28 Jan 3.9 13:06:52 10° N 13:11:00 26° WNW 13:15:07 10° WSW visible
29 Jan 5.2 10:51:11 10° NE 10:55:05 22° E 10:58:58 10° SE visible
29 Jan 3.1 12:29:27 10° N 12:34:23 51° WNW 12:39:17 10° SW visible
30 Jan 3.0 11:52:28 10° NNE 11:57:35 77° ESE 12:02:39 10° S visible
30 Jan 4.5 13:32:54 10° NNW 13:35:58 16° WNW 13:39:02 10° W visible
31 Jan 4.4 11:15:53 10° NNE 11:20:34 36° E 11:25:14 10° SSE visible
31 Jan 3.7 12:55:03 10° N 12:59:30 31° WNW 13:03:56 10° SW visible
